Погода в Пуэрто-де-ла-Крус

Испания     28°24′50″N   16°32′55″W
темп.,
°C
ветер,
м/с
пор.,
м/с
влажн.,
%
обл.,
%
осадки,
мм/ч
давл.,
гПа
погр.,
м
15 мая, сб
сб1501:00+17св248776 0.2 1021444
04:00+17св248231 0.3 1018524
07:00+17ссв368076 0.3 1019785
10:00+18св358142 0.1 1020669
13:00+18св357715 0.1 1020627
16:00+19ссв34757 0.0 1019595
19:00+19ссв34764 0.0 1018532
22:00+18всв247811 0.0 1019491
16 мая, вс
вс1601:00+18св357711 0.0 1019534
04:00+18св357811 0.0 1018535
07:00+18св457811 0.0 1018548
10:00+18всв45778 0.0 1019457
13:00+20св567336 0.0 1020381
16:00+20св66761 0.0 1018322
19:00+20св56806 0.0 1019365
22:00+19всв46814 0.0 1020348
17 мая, пн
пн1701:00+19всв57773 0.0 1020406
04:00+19всв587746 0.0 1020444
07:00+19всв697786 0.0 1020446
10:00+20всв78717 0.0 1021421
13:00+21всв897012 0.0 1021339
16:00+21всв91071100 0.0 1020370
19:00+20всв81075100 0.0 1020384
22:00+19всв6981100 0.0 1022451
18 мая, вт
вт1801:00+20в687593 0.0 1022371
04:00+19в687131 0.0 1021359
07:00+19в797745 0.0 1021392
10:00+19всв8107817 0.0 1022493
13:00+20всв897388 0.0 1022471
16:00+21всв896679 0.0 1020380
19:00+20всв787667 0.0 1020374
22:00+19всв6778100 0.0 1021353
19 мая, ср
ср1901:00+19всв5784100 0.0 1021435
04:00+19всв578393 0.0 1020454
07:00+19всв457929 0.0 1020390
10:00+19св457668 0.0 1021417
13:00+19св44723 0.0 1020345
16:00+19ссв447668 0.0 1019400
19:00+19ссв337958 0.0 1019333
22:00+19с237884 0.0 1020393